Weather History for KHCD - October, 2014

Change the Weather History Date:

Friday, October 3, 2014

  Actual Average Record
Temperature  
Mean Temperature 45 °F -  
Max Temperature 50 °F 66 °F 89 °F (1997)
Min Temperature 40 °F 42 °F 21 °F (1996)
Degree Days  
Heating Degree Days 20    
Moisture  
Dew Point 34 °F    
Average Humidity 67    
Maximum Humidity 94    
Minimum Humidity 46    
Precipitation  
Precipitation 0.01 in - - ()
Sea Level Pressure  
Sea Level Pressure 29.85 in    
Wind  
Wind Speed 18 mph (WNW)    
Max Wind Speed 29 mph    
Max Gust Speed 43 mph    
Visibility 10 miles    
Events Rain    
Averages and records for this station are not official NWS values.
T = Trace of Precipitation, MM = Missing Value Source: NWS Daily Summary

Daily Weather History Graph

Daily Weather History Graph

Search for Another Location

Airport or City:

Trip Planner

Search our weather history database for the weather conditions in past years. The results will help you decide how hot, cold, wet, or windy it might be!

Date:

Astronomy

Oct. 03, 2014 Rise Set
Actual Time 7:18 AM CDT 6:54 PM CDT
Civil Twilight 6:48 AM CDT 7:23 PM CDT
Nautical Twilight 6:14 AM CDT 7:57 PM CDT
Astronomical Twilight 5:40 AM CDT 8:31 PM CDT
Moon 3:59 PM CDT 1:26 AM CDT
Length of Visible Light 12h 34m
Length of Day
11h 36m
Waxing Gibbous, 71% of the Moon is Illuminated
Oct 3
Waxing Gibbous
Oct 8
Full
Oct 15
Last Quarter
Oct 23
New
Oct 30
First Quarter

Hourly Weather History & Observations

Time (CDT) Temp. Windchill Dew Point Humidity Pressure Visibility Wind Dir Wind Speed Gust Speed Precip Events Conditions
12:12 AM 50.9 °F - 49.1 °F 94% 29.77 in 10.0 mi West 8.1 mph - N/A   Clear
12:33 AM 50.4 °F - 48.6 °F 94% 29.77 in 10.0 mi West 10.4 mph - N/A   Clear
12:53 AM 50.4 °F - 47.7 °F 90% 29.79 in 10.0 mi West 15.0 mph 21.9 mph 0.01 in   Clear
1:12 AM 50.2 °F - 47.3 °F 90% 29.80 in 10.0 mi West 16.1 mph 23.0 mph N/A   Scattered Clouds
1:32 AM 50.0 °F - 46.9 °F 89% 29.80 in 10.0 mi WNW 15.0 mph 20.7 mph N/A   Scattered Clouds
1:53 AM 50.0 °F - 47.3 °F 90% 29.81 in 10.0 mi West 16.1 mph 21.9 mph N/A   Mostly Cloudy
2:13 AM 48.7 °F - 44.8 °F 86% 29.82 in 10.0 mi West 18.4 mph 31.1 mph N/A   Overcast
2:32 AM 47.7 °F - 43.5 °F 86% 29.82 in 10.0 mi WNW 18.4 mph 25.3 mph N/A   Overcast
2:52 AM 47.7 °F - 43.0 °F 84% 29.82 in 10.0 mi WNW 15.0 mph 26.5 mph N/A   Overcast
3:13 AM 46.8 °F - 41.7 °F 83% 29.82 in 10.0 mi West 21.9 mph 28.8 mph N/A   Overcast
3:32 AM 46.0 °F 38.8 °F 40.5 °F 81% 29.81 in 10.0 mi WNW 18.4 mph 27.6 mph N/A   Overcast
3:53 AM 45.5 °F 37.8 °F 40.3 °F 82% 29.80 in 10.0 mi WNW 19.6 mph 26.5 mph N/A   Overcast
4:12 AM 44.8 °F 36.9 °F 39.6 °F 82% 29.81 in 10.0 mi WNW 19.6 mph 28.8 mph N/A   Mostly Cloudy
4:33 AM 44.4 °F 35.7 °F 39.2 °F 82% 29.81 in 10.0 mi West 23.0 mph 28.8 mph N/A   Mostly Cloudy
4:52 AM 44.6 °F 36.1 °F 39.2 °F 81% 29.82 in 10.0 mi WNW 21.9 mph 31.1 mph N/A   Overcast
5:13 AM 44.1 °F 35.9 °F 38.3 °F 80% 29.82 in 10.0 mi WNW 19.6 mph 31.1 mph N/A   Overcast
5:32 AM 44.2 °F 35.9 °F 38.3 °F 80% 29.82 in 10.0 mi WNW 20.7 mph 28.8 mph N/A   Overcast
5:52 AM 44.6 °F 36.6 °F 38.3 °F 79% 29.83 in 10.0 mi WNW 19.6 mph 34.5 mph N/A   Overcast
6:13 AM 44.6 °F 36.9 °F 38.5 °F 79% 29.83 in 10.0 mi WNW 18.4 mph 25.3 mph N/A   Overcast
6:33 AM 44.8 °F 37.7 °F 38.3 °F 78% 29.83 in 10.0 mi West 16.1 mph 26.5 mph N/A   Overcast
6:52 AM 44.6 °F 37.2 °F 37.9 °F 77% 29.83 in 10.0 mi WNW 17.3 mph 31.1 mph N/A   Overcast
7:12 AM 44.6 °F 36.9 °F 37.8 °F 77% 29.83 in 10.0 mi WNW 18.4 mph 32.2 mph N/A   Overcast
7:32 AM 43.9 °F 35.4 °F 37.9 °F 80% 29.83 in 10.0 mi WNW 20.7 mph 27.6 mph N/A   Overcast
7:53 AM 43.7 °F 34.7 °F 37.4 °F 78% 29.84 in 10.0 mi WNW 23.0 mph 32.2 mph N/A   Overcast
8:13 AM 43.2 °F 34.5 °F 37.2 °F 80% 29.84 in 10.0 mi WNW 20.7 mph 31.1 mph N/A Rain Light Rain
8:32 AM 42.6 °F 34.0 °F 36.7 °F 79% 29.85 in 10.0 mi WNW 19.6 mph 38.0 mph N/A   Drizzle
8:53 AM 41.2 °F 32.7 °F 37.8 °F 88% 29.86 in 7.0 mi WNW 17.3 mph 34.5 mph N/A Rain Light Rain
9:12 AM 41.5 °F 31.6 °F 37.0 °F 84% 29.86 in 10.0 mi WNW 24.2 mph 39.1 mph N/A   Overcast
9:33 AM 43.2 °F 33.2 °F 34.3 °F 71% 29.85 in 10.0 mi WNW 27.6 mph 38.0 mph N/A   Overcast
9:53 AM 43.5 °F 34.7 °F 32.2 °F 64% 29.85 in 10.0 mi WNW 21.9 mph 33.4 mph N/A   Mostly Cloudy
10:13 AM 44.6 °F 34.9 °F 31.6 °F 60% 29.85 in 10.0 mi WNW 28.8 mph 40.3 mph N/A   Scattered Clouds
10:32 AM 45.7 °F 37.6 °F 31.5 °F 58% 29.86 in 10.0 mi WNW 21.9 mph 40.3 mph N/A   Scattered Clouds
10:52 AM 45.7 °F 37.1 °F 29.5 °F 53% 29.86 in 10.0 mi WNW 24.2 mph 40.3 mph N/A   Clear
11:12 AM 46.4 °F 38.3 °F 28.9 °F 51% 29.86 in 10.0 mi NW 23.0 mph 42.6 mph N/A   Clear
11:32 AM 47.5 °F - 29.8 °F 50% 29.87 in 10.0 mi WNW 26.5 mph 38.0 mph N/A   Scattered Clouds
11:52 AM 45.9 °F 37.0 °F 30.4 °F 55% 29.88 in 10.0 mi WNW 26.5 mph 34.5 mph N/A   Mostly Cloudy
12:13 PM 44.6 °F 35.3 °F 30.0 °F 57% 29.88 in 10.0 mi WNW 26.5 mph 39.1 mph N/A   Overcast
12:33 PM 45.3 °F 36.5 °F 30.7 °F 57% 29.88 in 10.0 mi WNW 25.3 mph 31.1 mph N/A   Overcast
12:52 PM 45.0 °F 35.8 °F 29.5 °F 55% 29.88 in 10.0 mi WNW 26.5 mph 39.1 mph N/A   Overcast
1:12 PM 44.1 °F 35.4 °F 29.7 °F 57% 29.88 in 10.0 mi West 21.9 mph 32.2 mph N/A   Overcast
1:32 PM 45.0 °F 35.8 °F 28.0 °F 52% 29.87 in 10.0 mi West 26.5 mph 36.8 mph N/A   Mostly Cloudy
1:53 PM 45.5 °F 36.5 °F 25.5 °F 46% 29.87 in 10.0 mi WNW 26.5 mph 36.8 mph N/A   Mostly Cloudy
2:13 PM 46.0 °F 37.6 °F 26.6 °F 47% 29.86 in 10.0 mi West 24.2 mph 33.4 mph N/A   Mostly Cloudy
2:33 PM 44.8 °F 35.5 °F 28.2 °F 52% 29.86 in 10.0 mi WNW 26.5 mph 33.4 mph N/A   Overcast
2:52 PM 44.4 °F 36.6 °F 27.3 °F 51% 29.87 in 10.0 mi West 18.4 mph 40.3 mph N/A   Overcast
3:13 PM 45.5 °F 36.9 °F 26.2 °F 47% 29.87 in 10.0 mi WNW 24.2 mph 35.7 mph N/A   Overcast
3:33 PM 44.2 °F 36.7 °F 27.5 °F 52% 29.88 in 10.0 mi WNW 17.3 mph 33.4 mph N/A   Overcast
3:52 PM 43.7 °F 34.3 °F 27.7 °F 53% 29.88 in 10.0 mi West 25.3 mph 35.7 mph N/A   Overcast
4:13 PM 43.7 °F 35.7 °F 28.0 °F 54% 29.89 in 10.0 mi West 18.4 mph 29.9 mph N/A   Overcast
4:32 PM 43.9 °F 34.5 °F 27.9 °F 53% 29.88 in 10.0 mi West 25.3 mph 33.4 mph N/A   Overcast
4:52 PM 43.7 °F 35.2 °F 28.2 °F 54% 29.89 in 10.0 mi West 20.7 mph 34.5 mph N/A   Overcast
5:13 PM 43.9 °F 34.7 °F 27.3 °F 52% 29.89 in 10.0 mi WNW 24.2 mph 35.7 mph N/A   Overcast
5:33 PM 43.7 °F 35.7 °F 27.5 °F 53% 29.89 in 10.0 mi West 18.4 mph 26.5 mph N/A   Overcast
5:52 PM 43.7 °F 36.0 °F 27.9 °F 54% 29.89 in 10.0 mi West 17.3 mph 27.6 mph N/A   Overcast
6:13 PM 42.8 °F 33.8 °F 28.4 °F 57% 29.89 in 10.0 mi West 21.9 mph 34.5 mph N/A   Overcast
6:32 PM 42.3 °F 33.6 °F 28.4 °F 58% 29.90 in 10.0 mi West 19.6 mph 31.1 mph N/A   Overcast
6:52 PM 41.9 °F 32.3 °F 28.4 °F 59% 29.89 in 10.0 mi West 23.0 mph 32.2 mph N/A   Overcast
7:12 PM 41.0 °F 31.9 °F 28.6 °F 61% 29.89 in 10.0 mi West 19.6 mph 26.5 mph N/A   Mostly Cloudy
7:33 PM 40.5 °F 31.2 °F 28.6 °F 63% 29.89 in 10.0 mi West 19.6 mph 26.5 mph N/A   Mostly Cloudy
7:52 PM 41.0 °F 31.9 °F 28.2 °F 60% 29.89 in 10.0 mi West 19.6 mph 31.1 mph N/A   Overcast
8:13 PM 41.2 °F 33.0 °F 28.2 °F 60% 29.89 in 10.0 mi West 16.1 mph 27.6 mph N/A   Overcast
8:33 PM 40.6 °F 32.3 °F 28.6 °F 62% 29.89 in 10.0 mi West 16.1 mph 23.0 mph N/A   Overcast
8:53 PM 40.6 °F 32.0 °F 28.6 °F 62% 29.89 in 10.0 mi West 17.3 mph 27.6 mph N/A   Overcast
9:12 PM 41.0 °F 31.9 °F 28.8 °F 62% 29.88 in 10.0 mi West 19.6 mph 25.3 mph N/A   Overcast
9:33 PM 41.0 °F 32.8 °F 28.6 °F 61% 29.87 in 10.0 mi West 16.1 mph 28.8 mph N/A   Overcast
9:52 PM 41.0 °F 32.2 °F 28.4 °F 61% 29.87 in 10.0 mi West 18.4 mph 27.6 mph N/A   Overcast
10:12 PM 41.0 °F 31.6 °F 28.4 °F 61% 29.86 in 10.0 mi West 20.7 mph 29.9 mph N/A   Overcast
10:33 PM 40.6 °F 31.4 °F 28.4 °F 62% 29.86 in 10.0 mi West 19.6 mph 33.4 mph N/A   Overcast
10:53 PM 40.6 °F 30.9 °F 28.0 °F 61% 29.85 in 10.0 mi West 21.9 mph 31.1 mph N/A   Overcast
11:12 PM 40.6 °F 32.3 °F 28.4 °F 62% 29.85 in 10.0 mi WNW 16.1 mph 28.8 mph N/A   Overcast
11:33 PM 40.8 °F 30.9 °F 27.5 °F 59% 29.84 in 10.0 mi WNW 23.0 mph 42.6 mph N/A   Overcast
11:53 PM 40.1 °F 29.7 °F 28.2 °F 63% 29.84 in 10.0 mi WNW 24.2 mph 42.6 mph N/A   Overcast